Content
SEND FEEDBACK

Daily
Averages
Monthly
Summary
Canada

BANFF, ALBERTA


Home > North America > Canada > Alberta
Elevation: 4583 feet     Latitude: 51 11N     Longitude: 115 34W

WEATHER
 
SELECT A DAY
Number of Records: 133,637;   Date Range: 1/1/95 - 9/22/14
 
SHARE

PRINT THIS DATA

[ ← Previous Day ]
WEATHER ALMANAC - AUGUST 14, 2013
[ Next Day → ]
[ °C ]   °F
Weather ElementAverageHighLow
Temperature62 °F80.1 °F (4:00 pm)42.6 °F (6:00 am)
Dewpoint41 °F45.7 °F (12:00 pm)34.2 °F (3:00 pm)
Humidity54.6 %97 % (5:00 am)19 % (3:00 pm)
Barometer30.03 in30.13 in (7:00 am)29.94 in (7:00 pm)
Wind Speed3.5 mph8.1 mph (5:00 pm)
Weather ElementAverage
Wind DirectionSW (223.5 °)

Weather ElementTotal
Precipitation---
Heating Degree Days3.7 (Base 65)
Growing Degree Days11.4 (Base 50)
Averaged from 23 records on August 14, 2013
WEATHER CONDITIONS BREAKOUT
WIND DIRECTION BREAKOUT
WEATHER BY HOUR - AUGUST 14, 2013
[ °C ]   °F
Local TimeTemperatureDewpointHumidityBarometerVisibilityWind DirectionWind SpeedGust SpeedPrecipitationEventsConditions
1:00 AM49.5 °F43.7 °F81 %30.08 inSouth (190°)1.2 mph
2:00 AM48.6 °F43.5 °F83 %30.08 inWest (260°)1.2 mph
3:00 AM47.5 °F44.2 °F89 %30.08 inWest (260°)1.2 mph
4:00 AM44.8 °F43.0 °F93 %30.09 inNNW (340°)1.2 mph
5:00 AM43.5 °F42.8 °F97 %30.10 inCalm
6:00 AM42.6 °F41.4 °F95 %30.10 inNW (320°)1.2 mph
7:00 AM43.2 °F42.3 °F97 %30.13 inCalm
8:00 AM48.6 °F43.2 °F82 %30.13 inWSW (240°)3.5 mph
9:00 AM53.2 °F44.1 °F71 %30.12 inSW (230°)5.8 mph
10:00 AM59.2 °F45.3 °F60 %30.09 inSW (220°)5.8 mph
11:00 AM65.7 °F45.3 °F48 %30.06 inSW (220°)4.6 mph
12:00 PM71.2 °F45.7 °F40 %30.04 inSSW (210°)4.6 mph
1:00 PM76.1 °F40.1 °F27 %30.01 inWSW (250°)3.5 mph
2:00 PM77.4 °F36.7 °F23 %29.99 inWest (270°)5.8 mph
3:00 PM79.5 °F34.2 °F19 %29.98 inWSW (250°)6.9 mph
4:00 PM80.1 °F36.7 °F21 %29.97 inSW (230°)5.8 mph
5:00 PM79.9 °F36.7 °F21 %29.96 inWSW (250°)8.1 mph
6:00 PM79.0 °F36.9 °F22 %29.96 inWSW (240°)5.8 mph
7:00 PM76.8 °F35.1 °F22 %29.94 inSSW (200°)6.9 mph
8:00 PM72.9 °F37.4 °F28 %29.94 inWSW (250°)2.3 mph
9:00 PM64.8 °F41.4 °F42 %29.95 inSSW (210°)1.2 mph
10:00 PM63.0 °F41.4 °F45 %29.94 inSW (220°)2.3 mph
11:00 PM59.5 °F40.8 °F50 %29.95 inWest (280°)2.3 mph
Hourly data recorded from CWZG, located miles away from Banff, Alberta







STORIES FROM OUR PARTNERS